Regional Weather Roundup
Issued by NWS Jackson, KY

Home | Current Version | Previous Version | Graphics & Text | Print | Product List | Glossary On
Versions: 1 2 3 4 5 6 7 8 9 10 11 12 13 14 15 16 17 18 19 20 21 22 23 24 25 26 27
000
ASUS43 KJKL 220510
RWRJKL

EAST KENTUCKY HOURLY WEATHER ROUNDUP
NATIONAL WEATHER SERVICE JACKSON KY
100 AM EDT FRI SEP 22 2017

NOTE: "FAIR" INDICATES FEW OR NO CLOUDS BELOW 12,000 FEET WITH
NO SIGNIFICANT WEATHER AND/OR OBSTRUCTIONS TO VISIBILITY.

* THESE REPORTS ARE NOT UNDER NWS QUALITY CONTROL AND MAY NOT
  REPORT WEATHER SUCH AS PRECIPITATION AND FOG.

KYZ079-080-083-085-087-088-110-112-115-119-120-220600
...EASTERN KENTUCKY...

CITY           SKY/WX    TMP DP  RH WIND       PRES   REMARKS
JACKSON        CLEAR     70  67  90 CALM      30.12S
LONDON         CLEAR     67  64  90 CALM      30.10F
SOMERSET*      CLEAR     66  66 100 CALM      30.11R
MONTICELLO*    CLEAR     62  61  96 W8        30.11S FOG
WILLIAMSBURG*  CLEAR     64  64 100 CALM      30.10S
MIDDLESBORO*   CLEAR     64  64 100 CALM      30.12S
HARLAN APT*    CLOUDY    64  63  94 CALM      30.13S
PIKE CO APT*     N/A     69  69 100 CALM      30.12S
BIG SANDY APT* CLEAR     69  69 100 CALM      30.12S
MOREHEAD APT*  CLEAR     68  66  94 SE5       30.12R FOG
$$

KYZ035-036-041-042-044-050-067-078-099-220600
...CENTRAL KENTUCKY...

CITY           SKY/WX    TMP DP  RH WIND       PRES   REMARKS
MT STERLING*   CLEAR     64  63  94 CALM      30.12S FOG
FLEMING/MASON* CLEAR     68  68  98 CALM      30.11R
DANVILLE*      CLEAR     64  64 100 CALM      30.11R
LEXINGTON      CLEAR     70  66  87 CALM      30.10R
FRANKFORT      CLEAR     70  66  87 CALM      30.07S
LOUISVILLE     CLEAR     78  70  76 CALM      30.06S
LEBANON*         N/A     73  66  78 CALM      30.09S
GLASGOW*       CLEAR    N/A N/A N/A CALM      30.08R HAZE
BOWLING GREEN  PTCLDY    71  69  93 CALM      30.06S
$$

KYZ091>093-OHZ055-061-077-WVZ005-015-034-035-042-220600
...SOUTHERN OHIO/WEST VIRGINIA...

CITY           SKY/WX    TMP DP  RH WIND       PRES   REMARKS
COVINGTON      CLEAR     76  70  82 SE3       30.08S
COLUMBUS       PTCLDY    73  67  81 E3        30.09S
DAYTON         PTCLDY    72  66  81 SE6       30.10S
WILMINGTON     CLEAR     68  66  93 CALM      30.10S
HUNTINGTON     CLEAR     69  66  90 CALM      30.09S
CHARLESTON     PTCLDY    66  64  93 CALM      30.10S FOG
PINEVILLE*     CLEAR     63  61  95 MISG      30.19S FOG
BECKLEY        CLEAR     63  61  93 S5        30.17S
BLUEFIELD      CLEAR     64  61  90 CALM      30.19S
LOGAN CO APT*    N/A     68  66  94 CALM      30.13S
$$

VAZ002-007-008-TNZ017-027-036-066-071-220600
...SOUTHWEST VIRGINIA/EAST TENNESSEE...

CITY           SKY/WX    TMP DP  RH WIND       PRES   REMARKS
WISE*          PTCLDY    64  64 100 CALM      30.19F
JONESVILLE*      N/A     64  63  94 CALM      30.14  FOG
ABINGDON*      CLEAR     67  64  89 CALM      30.15S
BRISTOL        CLEAR     64  62  93 CALM      30.12S
MORRISTOWN*    CLEAR     70  64  83 CALM      30.08S
SEVIERVILLE*   CLEAR     64  63  94 CALM      30.07S
KNOXVILLE      CLEAR     70  64  81 CALM      30.06F
LAFOLLETTE*    CLEAR     64  64 100 CALM      30.12F FOG
OAK RIDGE      CLEAR     69  66  90 CALM      30.08F
CROSSVILLE     CLEAR     64  63  96 CALM      30.12F
NASHVILLE      CLEAR     73  71  93 CALM      30.06S
$$

...KEY TO REMARKS...
VSB - VISIBILITY IN MILES
WCI - WIND CHILL INDEX
HX  - HEAT INDEX

$$




USA.gov is the U.S. government's official web portal to all federal, state and local government web resources and services.